Neah Bay 6NM North of Cape Flattery, WA (Traffic Separation Lighted Buoy) (46087)

Conditions for Tuesday

Daily
Weekly
Monthly
Marine Data Graph
Ad Blocker Enabled

Marine & Boating Location Search

Enter a coastal zip code for marine weather.

General Information

Location: 48.494 North -124.728 West
Buoy Type: 3-meter discus buoy
Buoy Hull: 3D16
Payload: ARES payload
Owned by: NDBC
Windspeed: Measured by obtained from anemometer
Sea Surface: Measured by Intake

Weather and Wave Data

Time Temp Humidity Wind Dominant Wave Wind Wave Wave Swell Pressure
  Air
(°F)
Water
(°F)
  Dir Speed
(kts)
Speed
(mph)
Period
(sec)
Height
(ft)
Range
(ft)
Period
(sec)
Height
(ft)
Range
(ft)
Period
(sec)
Height
(ft)
Range
(ft)
Atmo.
(in)
Tend.
(in)
20:20 45 46 95 WSW 5.8 6.7 - - - - - - 30.32 -
20:50 45 46 93 West 7.8 8.9 15 9.19 exactly 9.2 - - - 15 9.84 9.02 - 10.66 30.33 +0.01
21:20 45 46 92 West 5.8 6.7 - - - - - - 30.34 -
21:50 45 46 92 West 5.8 6.7 15 10.17 exactly 10.2 4 1.64 0.82 - 2.46 15 9.84 9.02 - 10.66 30.34 +0.01
22:20 45 46 92 West 5.8 6.7 - - - - - - 30.34 -
22:50 45 46 90 WSW 7.8 8.9 15 10.50 exactly 10.5 3 1.64 0.82 - 2.46 15 9.84 9.02 - 10.66 30.33 +0.01
23:20 45 46 91 WSW 5.8 6.7 - - - - - - 30.33 -
23:50 45 46 90 West 5.8 6.7 15 9.84 exactly 9.8 4 1.64 0.82 - 2.46 15 9.84 9.02 - 10.66 30.34 -
00:20 45 46 89 WSW 5.8 6.7 - - - - - - 30.34 -
00:50 45 46 88 West 5.8 6.7 15 10.83 exactly 10.8 4 1.64 0.82 - 2.46 15 9.84 9.02 - 10.66 30.34 -
01:20 46 46 79 West 5.8 6.7 - - - - - - 30.34 -
01:50 46 46 79 WSW 5.8 6.7 13 9.19 exactly 9.2 4 1.64 0.82 - 2.46 13 9.84 9.02 - 10.66 30.34 -
02:20 45 46 87 West 3.9 4.5 - - - - - - 30.34 -
02:50 45 46 85 WSW 3.9 4.5 15 10.17 exactly 10.2 4 1.64 0.82 - 2.46 15 9.84 9.02 - 10.66 30.34 -
03:20 46 46 78 WSW 3.9 4.5 - - - - - - 30.34 -
03:50 46 46 80 SW 3.9 4.5 15 9.19 exactly 9.2 4 1.64 0.82 - 2.46 15 9.84 9.02 - 10.66 30.33 -
04:20 46 46 80 WSW 1.9 2.2 - - - - - - 30.34 -
04:50 46 46 82 WSW 3.9 4.5 14 8.20 exactly 8.2 4 1.64 0.82 - 2.46 14 8.20 7.38 - 9.02 30.33 -0.01
05:20 45 46 89 South 5.8 6.7 - - - - - - 30.33 -
05:50 45 46 92 SSW 3.9 4.5 15 9.19 exactly 9.2 4 1.64 0.82 - 2.46 15 8.20 7.38 - 9.02 30.34 -
06:20 45 46 91 South 5.8 6.7 - - - - - - 30.34 -
06:50 44 46 97 South 5.8 6.7 15 7.87 exactly 7.9 3 1.64 0.82 - 2.46 15 8.20 7.38 - 9.02 30.35 +0.02
07:20 44 46 99 South 5.8 6.7 - - - - - - 30.35 -
07:50 44 46 100 South 7.8 8.9 14 8.53 exactly 8.5 - - - 14 8.20 7.38 - 9.02 30.35 +0.02
08:20 44 46 100 South 9.7 11.2 - - - - - - 30.35 -
08:50 44 46 99 SSE 3.9 4.5 15 7.55 exactly 7.5 - - - 15 8.20 7.38 - 9.02 30.36 +0.02
09:20 44 46 100 South 5.8 6.7 - - - - - - 30.37 -
09:50 45 46 98 South 13.6 15.7 14 8.86 exactly 8.9 6 1.64 0.82 - 2.46 14 8.20 7.38 - 9.02 30.36 -
10:20 46 46 96 WSW 7.8 8.9 - - - - - - 30.36 -
10:50 46 46 96 SW 9.7 11.2 13 9.51 exactly 9.5 4 1.64 0.82 - 2.46 13 9.84 9.02 - 10.66 30.35 -
11:20 46 46 96 SW 9.7 11.2 - - - - - - 30.36 -
11:50 46 46 95 SSW 11.7 13.4 13 9.51 exactly 9.5 4 1.64 0.82 - 2.46 13 9.84 9.02 - 10.66 30.33 -0.03
12:20 46 46 96 SSW 13.6 15.7 - - - - - - 30.32 -
12:50 46 46 95 SSW 15.6 17.9 13 8.86 exactly 8.9 7 3.28 2.46 - 4.10 13 8.20 7.38 - 9.02 30.31 -0.04
13:20 46 46 96 SSW 13.6 15.7 - - - - - - 30.32 -
13:50 46 46 96 SW 13.6 15.7 13 7.87 exactly 7.9 6 3.28 2.46 - 4.10 13 8.20 7.38 - 9.02 30.32 -0.04
14:20 46 46 99 SW 13.6 15.7 - - - - - - 30.30 -
14:50 46 46 99 SW 11.7 13.4 13 8.53 exactly 8.5 5 3.28 2.46 - 4.10 13 8.20 7.38 - 9.02 30.30 -0.03
15:20 47 46 96 WSW 15.6 17.9 - - - - - - 30.31 -
15:50 46 46 98 WSW 13.6 15.7 14 8.86 exactly 8.9 6 3.28 2.46 - 4.10 14 8.20 7.38 - 9.02 30.31 -
16:20 46 46 99 SW 13.6 15.7 - - - - - - 30.30 -
16:50 46 46 99 WSW 15.6 17.9 13 7.22 exactly 7.2 7 3.28 2.46 - 4.10 13 6.56 5.74 - 7.38 30.30 -0.02
17:20 46 46 100 SW 15.6 17.9 - - - - - - 30.29 -
17:50 46 46 100 WSW 15.6 17.9 13 7.87 exactly 7.9 6 3.28 2.46 - 4.10 13 6.56 5.74 - 7.38 30.28 -0.02
18:20 46 46 100 WSW 15.6 17.9 - - - - - - 30.28 -
18:50 46 46 100 WSW 15.6 17.9 13 7.87 exactly 7.9 5 4.92 4.10 - 5.74 13 6.56 5.74 - 7.38 30.29 -0.02
19:20 46 46 98 West 13.6 15.7 - - - - - - 30.29 -
19:50 46 46 96 West 11.7 13.4 13 6.89 exactly 6.9 5 3.28 2.46 - 4.10 13 6.56 5.74 - 7.38 30.29 -0.01
20:20 46 46 94 West 11.7 13.4 - - - - - - 30.29 -
20:50 45 46 92 WNW 17.5 20.1 13 8.20 exactly 8.2 7 3.28 2.46 - 4.10 13 6.56 5.74 - 7.38 30.29 +0.01
21:20 46 46 89 West 11.7 13.4 - - - - - - 30.29 -
21:50 47 46 82 West 15.6 17.9 13 8.53 exactly 8.5 7 4.92 4.10 - 5.74 13 6.56 5.74 - 7.38 30.29 -
22:20 46 46 84 West 17.5 20.1 - - - - - - 30.30 -
22:50 46 46 84 West 15.6 17.9 13 7.87 exactly 7.9 7 4.92 4.10 - 5.74 13 6.56 5.74 - 7.38 30.30 +0.02
23:20 46 46 84 West 13.6 15.7 - - - - - - 30.31 -
23:50 46 46 82 West 13.6 15.7 12 9.51 exactly 9.5 7 4.92 4.10 - 5.74 12 8.20 7.38 - 9.02 30.31 +0.02
00:20 46 46 80 West 15.6 17.9 - - - - - - 30.31 -
00:50 46 46 80 West 15.6 17.9 13 9.51 exactly 9.5 8 6.56 5.74 - 7.38 13 8.20 7.38 - 9.02 30.32 +0.03
01:20 46 46 81 West 15.6 17.9 - - - - - - 30.32 -
01:50 46 46 77 West 17.5 20.1 12 9.84 exactly 9.8 7 6.56 5.74 - 7.38 12 8.20 7.38 - 9.02 30.32 +0.02
02:20 46 46 72 West 13.6 15.7 - - - - - - 30.33 -
02:50 44 46 87 West 15.6 17.9 11 9.84 exactly 9.8 7 4.92 4.10 - 5.74 11 8.20 7.38 - 9.02 30.33 +0.02
03:20 45 46 83 West 9.7 11.2 - - - - - - 30.34 -
03:50 45 46 83 West 13.6 15.7 10 9.84 exactly 9.8 6 4.92 4.10 - 5.74 10 8.20 7.38 - 9.02 30.34 +0.02

Detailed Wave Spectra

Time Water Depth Wave Height Spectral Peak Period Average Wave Period Sampling Interval Wave Record
20:00 843 ft 10.47 ft 14.8 sec 11.1 sec 0.6 sec 2400 sec
21:00 843 ft 9.22 ft 14.8 sec 10.8 sec 0.6 sec 2400 sec
22:00 843 ft 10.14 ft 14.8 sec 11.2 sec 0.6 sec 2400 sec
23:00 843 ft 10.33 ft 14.8 sec 10.8 sec 0.6 sec 2400 sec
00:00 843 ft 9.78 ft 14.8 sec 10.0 sec 0.6 sec 2400 sec
01:00 843 ft 10.70 ft 14.8 sec 10.2 sec 0.6 sec 2400 sec
02:00 843 ft 9.09 ft 12.9 sec 9.6 sec 0.6 sec 2400 sec
03:00 843 ft 10.14 ft 14.8 sec 10.4 sec 0.6 sec 2400 sec
04:00 843 ft 9.12 ft 14.8 sec 9.8 sec 0.6 sec 2400 sec
05:00 843 ft 8.30 ft 13.8 sec 9.7 sec 0.6 sec 2400 sec
06:00 843 ft 9.09 ft 14.8 sec 10.1 sec 0.6 sec 2400 sec
07:00 843 ft 7.84 ft 14.8 sec 9.5 sec 0.6 sec 2400 sec
08:00 843 ft 8.40 ft 13.8 sec 10.1 sec 0.6 sec 2400 sec
09:00 843 ft 7.51 ft 14.8 sec 10.3 sec 0.6 sec 2400 sec
10:00 843 ft 8.99 ft 13.8 sec 10.9 sec 0.6 sec 2400 sec
11:00 843 ft 9.55 ft 12.9 sec 10.1 sec 0.6 sec 2400 sec
12:00 843 ft 9.55 ft 12.9 sec 10.1 sec 0.6 sec 2400 sec
13:00 843 ft 8.79 ft 12.9 sec 9.2 sec 0.6 sec 2400 sec
14:00 843 ft 8.04 ft 12.9 sec 8.5 sec 0.6 sec 2400 sec
15:00 843 ft 8.60 ft 12.9 sec 8.9 sec 0.6 sec 2400 sec
16:00 843 ft 8.89 ft 13.8 sec 8.6 sec 0.6 sec 2400 sec
17:00 843 ft 7.32 ft 12.9 sec 7.6 sec 0.6 sec 2400 sec
18:00 843 ft 7.84 ft 12.9 sec 7.5 sec 0.6 sec 2400 sec
19:00 843 ft 7.78 ft 12.9 sec 7.0 sec 0.6 sec 2400 sec
20:00 843 ft 7.02 ft 12.9 sec 7.6 sec 0.6 sec 2400 sec
21:00 843 ft 8.14 ft 12.9 sec 8.6 sec 0.6 sec 2400 sec
22:00 843 ft 8.40 ft 12.9 sec 8.3 sec 0.6 sec 2400 sec
23:00 843 ft 7.71 ft 12.9 sec 7.3 sec 0.6 sec 2400 sec
00:00 843 ft 9.45 ft 12.1 sec 7.4 sec 0.6 sec 2400 sec
01:00 843 ft 9.51 ft 12.9 sec 7.4 sec 0.6 sec 2400 sec
02:00 843 ft 9.97 ft 12.1 sec 7.5 sec 0.6 sec 2400 sec
03:00 843 ft 9.74 ft 10.8 sec 7.7 sec 0.6 sec 2400 sec